Waarnemingen

Advertentie
Mijn weer
Katterjakk A, Zweden (2019): temperatuur & dauwpunt: 12.02.2019 01:00:00 - 18.02.2019 01:00:00 (CET)Katterjakk A, Zweden (2019): windsnelheid & windstoten: 12.02.2019 01:00:00 - 18.02.2019 01:00:00 (CET)Katterjakk A, Zweden (2019): windrichting: 12.02.2019 01:00:00 - 18.02.2019 01:00:00 (CET)Katterjakk A, Zweden (2019): luchtdruk: 12.02.2019 01:00:00 - 18.02.2019 01:00:00 (CET)Katterjakk A, Zweden (2019): zicht: 12.02.2019 01:00:00 - 18.02.2019 01:00:00 (CET)Katterjakk A, Zweden (2019): neerslag: 12.02.2019 01:00:00 - 18.02.2019 01:00:00 (CET)
Datum & Tijd tt [°C] td [°C] ff [km/u] ff [kn] fx [km/u] fx [kn] dd ppp [hPa] vv [km] rr [mm]
18.02.2019 01:00:00 -10,3 -11,8 3 2 19 11 ZZW 1010,7 50 0,0
18.02.2019 00:00:00 -9,8 -11,4 8 4 19 11 Z 1011,5 50 0,0
17.02.2019 23:00:00 -8,4 -10,0 3 2 9 5 N 1012,4 50 0,0
17.02.2019 22:00:00 -8,1 -9,4 4 2 9 5 W 1012,8 50 0,0
17.02.2019 21:00:00 -7,3 -9,1 2 1 15 8 ONO 1013,2 48 0,0
17.02.2019 20:00:00 -8,4 -9,9 3 1 15 8 ZO 1014,1 50 0,0
17.02.2019 19:00:00 -7,6 -9,1 0 0 9 5 N 1014,4 36 0,0
17.02.2019 18:00:00 -6,8 -8,0 6 3 13 7 N 1014,8 31 0,0
17.02.2019 17:00:00 -6,0 -7,8 4 2 - - Z 1014,9 50 0,0
17.02.2019 16:00:00 -5,3 -7,6 - - - - - 1015,0 - 0,0
17.02.2019 15:00:00 - - - - - - - - - -
17.02.2019 14:00:00 - - - - - - - - - -
17.02.2019 13:00:00 - - - - - - - - - -
17.02.2019 12:00:00 - - - - - - - - - -
17.02.2019 11:00:00 - - - - - - - - - -
17.02.2019 10:00:00 - - - - - - - - - -
17.02.2019 09:00:00 - - - - - - - - - -
17.02.2019 08:00:00 - - - - - - - - - -
17.02.2019 07:00:00 - - - - - - - - - -
17.02.2019 06:00:00 - - - - - - - - - -
17.02.2019 05:00:00 - - - - - - - - - -
17.02.2019 04:00:00 - - - - - - - - - -
17.02.2019 03:00:00 - - - - - - - - - -
17.02.2019 02:00:00 - - - - - - - - - -
17.02.2019 01:00:00 -3,5 -5,0 - - - - - 1002,0 - 0,3
17.02.2019 00:00:00 -3,9 -4,6 - - - - - 1000,2 - 0,3
16.02.2019 23:00:00 -4,0 -4,8 - - - - - 998,3 - 0,2
16.02.2019 22:00:00 -2,7 -3,2 - - - - - 995,4 - 0,7
16.02.2019 21:00:00 -2,5 -3,0 - - - - - 993,8 - 0,5
16.02.2019 20:00:00 -2,5 -3,0 - - - - - 991,3 - 0,8
16.02.2019 19:00:00 -2,4 -3,0 - - - - - 989,3 - 1,3
16.02.2019 18:00:00 -1,8 -2,4 - - - - - 985,4 - 1,3
16.02.2019 17:00:00 -1,1 -1,5 - - - - - 981,5 - 1,0
16.02.2019 16:00:00 -0,3 -0,6 - - 88 48 - 978,1 - 1,8
16.02.2019 15:00:00 0,9 -1,0 37 20 69 37 W 973,9 3,2 0,3
16.02.2019 14:00:00 -0,5 -1,2 45 25 65 35 W 973,6 0,3 0,6
16.02.2019 13:00:00 -0,5 -1,1 29 16 66 36 WZW 972,5 0,6 1,8
16.02.2019 12:00:00 -0,9 -1,5 38 20 67 36 ZW 973,2 0,2 1,1
16.02.2019 11:00:00 -0,8 -2,8 40 22 84 45 ZW 974,8 1,2 0,0
16.02.2019 10:00:00 0,3 -4,3 42 23 84 45 ZW 975,9 4,2 0,1
16.02.2019 09:00:00 0,7 -3,6 41 22 84 45 ZW 977,2 3,0 0,0
16.02.2019 08:00:00 1,7 -4,4 46 25 86 47 WZW 978,1 14 0,0
16.02.2019 07:00:00 2,3 -2,8 59 32 90 49 ZW 979,3 6 0,4
16.02.2019 06:00:00 4,3 -1,9 64 35 90 49 ZZW 979,8 17 0,0
16.02.2019 05:00:00 3,5 -0,2 62 34 90 49 Z 981,8 50 0,1
16.02.2019 04:00:00 3,1 0,7 56 31 74 40 Z 984,2 10 -
16.02.2019 03:00:00 3,0 1,2 42 23 63 34 Z 986,6 18 0,1
16.02.2019 02:00:00 0,1 0,0 23 13 55 30 Z 989,0 9 0,5
16.02.2019 01:00:00 -2,0 -2,4 9 5 24 13 O 992,7 5 0,0
16.02.2019 00:00:00 -2,3 -2,7 9 5 29 15 O 995,2 29 0,0
15.02.2019 23:00:00 -2,9 -3,3 17 9 29 15 O 997,9 17 0,2
15.02.2019 22:00:00 -3,2 -3,7 4 2 16 9 NO 999,9 1,5 0,6
15.02.2019 21:00:00 -3,4 -3,9 11 6 16 9 ONO 1001,6 1,0 0,0
15.02.2019 20:00:00 -2,8 -3,2 6 4 13 7 O 1002,8 33 0,0
15.02.2019 19:00:00 -3,0 -3,4 4 2 16 8 W 1003,7 14 0,0
15.02.2019 18:00:00 -2,6 -3,0 6 3 16 8 N 1004,1 50 0,0
15.02.2019 17:00:00 -2,6 -3,0 6 4 19 11 ZZW 1005,0 25 0,2
15.02.2019 16:00:00 -2,4 -2,8 8 4 20 11 NW 1005,4 1,2 0,2
15.02.2019 15:00:00 -2,6 -3,0 15 8 24 13 WNW 1005,4 1,6 0,5
15.02.2019 14:00:00 -2,3 -2,7 15 8 34 18 WNW 1005,3 7 0,1
15.02.2019 13:00:00 -1,7 -2,0 11 6 39 21 W 1004,6 4,3 0,3
15.02.2019 12:00:00 -1,9 -2,2 27 14 39 21 W 1004,0 2,7 0,1
15.02.2019 11:00:00 -1,6 -1,9 24 13 55 30 W 1003,1 1,1 0,6
15.02.2019 10:00:00 -1,1 -1,2 25 14 60 32 W 1002,2 0,6 1,2
15.02.2019 09:00:00 -0,8 -0,9 40 21 61 33 W 1000,6 0,8 0,5
15.02.2019 08:00:00 -0,3 -0,4 40 21 66 36 W 998,5 1,0 0,4
15.02.2019 07:00:00 -0,3 -0,4 42 23 70 38 W 997,4 0,5 0,8
15.02.2019 06:00:00 0,0 -0,1 47 25 81 44 W 996,1 0,6 0,7
15.02.2019 05:00:00 0,1 0,0 - - 89 48 - 994,4 1,5 1,8
15.02.2019 04:00:00 0,1 0,0 - - 89 48 - 993,0 - 1,9
15.02.2019 03:00:00 0,1 0,0 62 33 84 45 W 991,0 1,3 0,2
15.02.2019 02:00:00 0,0 -0,1 50 27 78 42 W 989,7 0,7 0,2
15.02.2019 01:00:00 -0,5 -0,6 39 21 73 40 W 988,5 1,2 0,3
15.02.2019 00:00:00 -0,8 -1,1 39 21 83 45 W 988,4 0,9 0,6
14.02.2019 23:00:00 -0,8 -1,1 61 33 83 45 W 987,8 0,3 0,2
14.02.2019 22:00:00 -0,7 -0,8 53 28 82 45 W 986,7 0,6 0,2
14.02.2019 21:00:00 -0,5 -0,6 56 30 82 45 W 985,8 0,7 0,1
14.02.2019 20:00:00 -0,4 -0,5 48 26 77 41 W 985,1 - 0,4
14.02.2019 19:00:00 0,1 -0,2 46 25 65 35 W 984,1 0,4 1,3
14.02.2019 18:00:00 0,7 0,0 41 22 64 35 W 982,9 2,1 0,9
14.02.2019 17:00:00 0,3 -0,3 34 18 64 35 W 983,0 1,2 1,4
14.02.2019 16:00:00 2,0 -0,1 37 20 58 32 W 982,8 4,2 0,0
14.02.2019 15:00:00 -1,9 -2,2 8 4 30 16 N 984,1 17 0,7
14.02.2019 14:00:00 0,6 0,5 15 8 26 14 ZW 984,9 1,6 -
14.02.2019 13:00:00 -3,5 -4,0 5 3 21 12 NW 986,8 46 0,2
14.02.2019 12:00:00 -4,1 -4,8 6 4 27 15 N 989,3 1,6 0,8
14.02.2019 11:00:00 -4,4 -5,1 8 4 27 15 N 991,5 0,5 0,3
14.02.2019 10:00:00 -5,6 -6,4 8 5 15 8 NNW 991,5 1,0 0,3
14.02.2019 09:00:00 -7,6 -8,7 4 2 9 5 NNO 994,0 2,0 0,1
14.02.2019 08:00:00 -8,7 -9,9 3 2 9 5 W 997,2 3,4 0,3
14.02.2019 07:00:00 -10,3 -11,6 4 2 10 5 NNW 1000,4 1,9 0,5
14.02.2019 06:00:00 -10,4 -11,7 4 2 10 6 N 1002,5 8 0,1
14.02.2019 05:00:00 -10,0 -11,3 4 2 14 7 NNO 1004,3 42 0,0
14.02.2019 04:00:00 -9,5 -10,7 8 5 14 7 NNO 1005,4 16 0,0
14.02.2019 03:00:00 -10,1 -11,1 3 2 14 7 NW 1006,6 33 -
14.02.2019 02:00:00 -9,6 -10,7 6 3 19 10 W 1007,2 50 0,0
14.02.2019 01:00:00 -7,6 -9,0 6 4 23 12 NO 1007,1 50 0,0
14.02.2019 00:00:00 -4,3 -9,5 14 8 23 12 W 1006,7 50 0,0
13.02.2019 23:00:00 -4,9 -7,0 6 3 20 11 NW 1007,1 50 0,0
13.02.2019 22:00:00 -4,8 -6,0 7 4 18 10 WNW 1007,2 2,5 0,1
13.02.2019 21:00:00 -5,5 -7,2 5 3 23 13 NNW 1007,3 44 0,0
13.02.2019 20:00:00 -6,7 -8,1 10 5 23 13 W 1007,2 2,6 0,3
13.02.2019 19:00:00 -8,4 -9,5 3 2 11 6 W 1006,8 0,8 0,4
13.02.2019 18:00:00 -8,4 -10,0 4 2 9 5 WZW 1005,2 8 0,0
13.02.2019 17:00:00 -9,1 -10,9 4 2 9 5 N 1004,4 50 0,0
13.02.2019 16:00:00 -9,0 -10,6 4 2 13 7 WNW 1003,0 50 0,0
13.02.2019 15:00:00 -9,0 -11,1 6 3 16 8 N 1001,2 50 0,0
13.02.2019 14:00:00 -8,6 -11,1 7 4 16 8 NNW 999,6 50 0,0
13.02.2019 13:00:00 -8,7 -11,5 6 3 19 10 NW 998,5 50 0,0
13.02.2019 12:00:00 -8,5 -11,2 7 4 22 12 NNW 997,3 50 0,0
13.02.2019 11:00:00 -7,9 -10,7 13 7 22 12 NNW 996,4 50 0,0
13.02.2019 10:00:00 -8,4 -11,9 9 5 14 8 NNW 995,8 50 0,0
13.02.2019 09:00:00 -9,8 -13,2 5 3 16 9 NNW 995,6 50 0,0
13.02.2019 08:00:00 -10,2 -13,8 5 3 16 9 NW 995,2 50 0,0
13.02.2019 07:00:00 -10,1 -13,0 6 4 15 8 NW 995,2 50 0,0
13.02.2019 06:00:00 -7,6 -11,6 6 4 15 8 N 995,1 50 0,0
13.02.2019 05:00:00 -10,2 -12,2 5 3 23 12 NW 995,7 50 0,0
13.02.2019 04:00:00 -8,6 -11,6 6 3 23 12 W 996,3 50 0,0
13.02.2019 03:00:00 -11,1 -13,7 9 5 16 9 N 997,4 50 0,0
13.02.2019 02:00:00 -10,1 -13,5 4 2 18 10 NNW 998,1 50 0,0
13.02.2019 01:00:00 -10,8 -14,4 7 4 20 11 ZW 999,2 50 0,0
13.02.2019 00:00:00 -9,7 -13,3 10 5 20 11 ZW 999,9 50 0,0
12.02.2019 23:00:00 -8,9 -12,9 10 6 28 15 ZW 1000,7 50 0,0
12.02.2019 22:00:00 -7,9 -11,9 8 4 33 18 Z 1001,6 50 0,0
12.02.2019 21:00:00 -4,7 -9,3 14 8 32 18 W 1001,6 35 0,0
12.02.2019 20:00:00 -4,6 -8,0 23 13 46 25 W 1001,7 16 0,2
12.02.2019 19:00:00 -4,3 -6,1 17 9 51 28 W 1002,4 6 0,1
12.02.2019 18:00:00 -4,5 -5,7 38 20 65 35 W 1002,0 0,5 0,2
12.02.2019 17:00:00 -4,1 -5,5 38 21 69 37 W 1002,1 1,2 0,5
12.02.2019 16:00:00 -3,6 -4,9 50 27 71 38 W 1000,9 0,3 0,5
12.02.2019 15:00:00 -3,4 -4,4 52 28 71 38 W 1000,3 0,2 1,2
12.02.2019 14:00:00 -3,2 -4,2 36 19 51 28 W 999,5 0,3 1,2
12.02.2019 13:00:00 -3,2 -4,2 31 17 50 27 W 998,6 0,4 1,6
12.02.2019 12:00:00 -3,6 -4,6 31 17 50 27 W 998,3 0,2 1,0
12.02.2019 11:00:00 -3,3 -4,7 33 18 48 26 WZW 997,8 0,8 0,3
12.02.2019 10:00:00 -3,9 -5,3 26 14 47 25 W 997,6 0,6 0,3
12.02.2019 09:00:00 -3,5 -6,3 27 15 51 27 WZW 997,2 2,0 0,1
12.02.2019 08:00:00 -3,2 -8,3 35 19 54 29 WZW 997,0 11 0,0
12.02.2019 07:00:00 -3,6 -8,3 36 19 54 29 WZW 997,1 7 0,0
12.02.2019 06:00:00 -3,8 -8,5 32 18 56 30 WZW 997,1 6 0,0
12.02.2019 05:00:00 -3,9 -8,7 36 19 63 34 W 996,9 11 0,0
12.02.2019 04:00:00 -4,8 -7,2 47 26 63 34 W 996,7 1,6 0,1
12.02.2019 03:00:00 -3,9 -7,7 36 19 52 28 W 997,1 4,8 0,0
12.02.2019 02:00:00 -3,9 -6,1 36 19 50 27 W 996,6 3,4 0,2
12.02.2019 01:00:00 -3,9 -5,6 30 16 42 23 W 996,5 3,5 0,2

tt = temperatuur
td = dauwpunt
ff = windsnelheid
fx = windstoten
dd = windrichting
ppp = luchtdruk
vv = zicht
rr = neerslag

Weerstations in de omgeving